Year,Month,Day,Hour,Minute,Value (Times are PST for temperature in C)
2015,06,15,00,00,15.50
2015,06,15,00,01,15.50
2015,06,15,00,02,15.50
2015,06,15,00,03,15.50
2015,06,15,00,04,15.50
2015,06,15,00,05,15.50
2015,06,15,00,06,15.50
2015,06,15,00,07,15.50
2015,06,15,00,08,15.50
2015,06,15,00,09,15.60
2015,06,15,00,10,15.60
2015,06,15,00,11,15.60
2015,06,15,00,12,15.60
2015,06,15,00,13,15.60
2015,06,15,00,14,15.60
2015,06,15,00,15,15.70
2015,06,15,00,16,15.70
2015,06,15,00,17,15.70
2015,06,15,00,18,15.70
2015,06,15,00,19,15.70
2015,06,15,00,20,15.70
2015,06,15,00,21,15.60
2015,06,15,00,22,15.70
2015,06,15,00,23,15.60
2015,06,15,00,24,15.60
2015,06,15,00,25,15.60
2015,06,15,00,26,15.60
2015,06,15,00,27,15.60
2015,06,15,00,28,15.60
2015,06,15,00,29,15.60
2015,06,15,00,30,15.60
2015,06,15,00,31,15.60
2015,06,15,00,32,15.60
2015,06,15,00,33,15.50
2015,06,15,00,34,15.50
2015,06,15,00,35,15.50
2015,06,15,00,36,15.50
2015,06,15,00,37,15.50
2015,06,15,00,38,15.40
2015,06,15,00,39,15.40
2015,06,15,00,40,15.40
2015,06,15,00,41,15.40
2015,06,15,00,42,15.40
2015,06,15,00,43,15.30
2015,06,15,00,44,15.30
2015,06,15,00,45,15.30
2015,06,15,00,46,15.30
2015,06,15,00,47,15.30
2015,06,15,00,48,15.20
2015,06,15,00,49,15.20
2015,06,15,00,50,15.20
2015,06,15,00,51,15.10
2015,06,15,00,52,15.10
2015,06,15,00,53,15.10
2015,06,15,00,54,15.10
2015,06,15,00,55,15.10
2015,06,15,00,56,15.10
2015,06,15,00,57,15.10
2015,06,15,00,58,15.10
2015,06,15,00,59,15.00
2015,06,15,01,00,15.00
2015,06,15,01,01,15.00
2015,06,15,01,02,15.00
2015,06,15,01,03,15.00
2015,06,15,01,04,15.00
2015,06,15,01,05,15.00
2015,06,15,01,06,15.00
2015,06,15,01,07,15.00
2015,06,15,01,08,15.00
2015,06,15,01,09,15.00
2015,06,15,01,10,15.00
2015,06,15,01,11,15.00
2015,06,15,01,12,15.00
2015,06,15,01,13,14.90
2015,06,15,01,14,14.90
2015,06,15,01,15,14.80
2015,06,15,01,16,14.80
2015,06,15,01,17,14.80
2015,06,15,01,18,14.80
2015,06,15,01,19,14.80
2015,06,15,01,20,14.80
2015,06,15,01,21,14.70
2015,06,15,01,22,14.60
2015,06,15,01,23,14.60
2015,06,15,01,24,14.50
2015,06,15,01,25,14.40
2015,06,15,01,26,14.30
2015,06,15,01,27,14.30
2015,06,15,01,28,14.30
2015,06,15,01,29,14.30
2015,06,15,01,30,14.20
2015,06,15,01,31,14.20
2015,06,15,01,32,14.20
2015,06,15,01,33,14.20
2015,06,15,01,34,14.10
2015,06,15,01,35,14.10
2015,06,15,01,36,14.10
2015,06,15,01,37,14.10
2015,06,15,01,38,14.10
2015,06,15,01,39,14.10
2015,06,15,01,40,14.10
2015,06,15,01,41,14.10
2015,06,15,01,42,14.10
2015,06,15,01,43,14.10
2015,06,15,01,44,14.10
2015,06,15,01,45,14.10
2015,06,15,01,46,14.10
2015,06,15,01,47,14.00
2015,06,15,01,48,14.00
2015,06,15,01,49,13.90
2015,06,15,01,50,13.90
2015,06,15,01,51,13.90
2015,06,15,01,52,13.90
2015,06,15,01,53,13.90
2015,06,15,01,54,13.90
2015,06,15,01,55,13.80
2015,06,15,01,56,13.80
2015,06,15,01,57,13.80
2015,06,15,01,58,13.80
2015,06,15,01,59,13.80
2015,06,15,02,00,13.80
2015,06,15,02,01,13.80
2015,06,15,02,02,13.80
2015,06,15,02,03,13.80
2015,06,15,02,04,13.80
2015,06,15,02,05,13.80
2015,06,15,02,06,13.80
2015,06,15,02,07,13.80
2015,06,15,02,08,13.80
2015,06,15,02,09,13.80
2015,06,15,02,10,13.80
2015,06,15,02,11,13.80
2015,06,15,02,12,13.90
2015,06,15,02,13,13.90
2015,06,15,02,14,14.00
2015,06,15,02,15,14.00
2015,06,15,02,16,14.10
2015,06,15,02,17,14.10
2015,06,15,02,18,14.20
2015,06,15,02,19,14.20
2015,06,15,02,20,14.20
2015,06,15,02,21,14.20
2015,06,15,02,22,14.20
2015,06,15,02,23,14.30
2015,06,15,02,24,14.30
2015,06,15,02,25,14.30
2015,06,15,02,26,14.30
2015,06,15,02,27,14.30
2015,06,15,02,28,14.30
2015,06,15,02,29,14.30
2015,06,15,02,30,14.30
2015,06,15,02,31,14.30
2015,06,15,02,32,14.30
2015,06,15,02,33,14.20
2015,06,15,02,34,14.20
2015,06,15,02,35,14.20
2015,06,15,02,36,14.20
2015,06,15,02,37,14.10
2015,06,15,02,38,14.10
2015,06,15,02,39,14.10
2015,06,15,02,40,14.00
2015,06,15,02,41,14.00
2015,06,15,02,42,14.00
2015,06,15,02,43,14.00
2015,06,15,02,44,14.00
2015,06,15,02,45,14.00
2015,06,15,02,46,14.00
2015,06,15,02,47,14.00
2015,06,15,02,48,14.00
2015,06,15,02,49,14.00
2015,06,15,02,50,14.00
2015,06,15,02,51,13.90
2015,06,15,02,52,13.90
2015,06,15,02,53,13.90
2015,06,15,02,54,13.90
2015,06,15,02,55,13.90
2015,06,15,02,56,13.80
2015,06,15,02,57,13.80
2015,06,15,02,58,13.80
2015,06,15,02,59,13.80
2015,06,15,03,00,13.80
2015,06,15,03,01,13.80
2015,06,15,03,02,13.80
2015,06,15,03,03,13.80
2015,06,15,03,04,13.80
2015,06,15,03,05,13.80
2015,06,15,03,06,13.70
2015,06,15,03,07,13.70
2015,06,15,03,08,13.70
2015,06,15,03,09,13.70
2015,06,15,03,10,13.70
2015,06,15,03,11,13.60
2015,06,15,03,12,13.60
2015,06,15,03,13,13.60
2015,06,15,03,14,13.60
2015,06,15,03,15,13.60
2015,06,15,03,16,13.60
2015,06,15,03,17,13.60
2015,06,15,03,18,13.60
2015,06,15,03,19,13.50
2015,06,15,03,20,13.50
2015,06,15,03,21,13.50
2015,06,15,03,22,13.40
2015,06,15,03,23,13.40
2015,06,15,03,24,13.40
2015,06,15,03,25,13.30
2015,06,15,03,26,13.30
2015,06,15,03,27,13.20
2015,06,15,03,28,13.20
2015,06,15,03,29,13.20
2015,06,15,03,30,13.20
2015,06,15,03,31,13.20
2015,06,15,03,32,13.10
2015,06,15,03,33,13.10
2015,06,15,03,34,13.10
2015,06,15,03,35,13.10
2015,06,15,03,36,13.10
2015,06,15,03,37,13.00
2015,06,15,03,38,13.00
2015,06,15,03,39,12.90
2015,06,15,03,40,12.90
2015,06,15,03,41,12.90
2015,06,15,03,42,12.80
2015,06,15,03,43,12.80
2015,06,15,03,44,12.80
2015,06,15,03,45,12.70
2015,06,15,03,46,12.70
2015,06,15,03,47,12.70
2015,06,15,03,48,12.70
2015,06,15,03,49,12.60
2015,06,15,03,50,12.60
2015,06,15,03,51,12.60
2015,06,15,03,52,12.60
2015,06,15,03,53,12.60
2015,06,15,03,54,12.60
2015,06,15,03,55,12.60
2015,06,15,03,56,12.60
2015,06,15,03,57,12.60
2015,06,15,03,58,12.50
2015,06,15,03,59,12.50
2015,06,15,04,00,12.50
2015,06,15,04,01,12.40
2015,06,15,04,02,12.40
2015,06,15,04,03,12.30
2015,06,15,04,04,12.30
2015,06,15,04,05,12.30
2015,06,15,04,06,12.20
2015,06,15,04,07,12.20
2015,06,15,04,08,12.20
2015,06,15,04,09,12.20
2015,06,15,04,10,12.10
2015,06,15,04,11,12.10
2015,06,15,04,12,12.10
2015,06,15,04,13,12.00
2015,06,15,04,14,12.00
2015,06,15,04,15,11.90
2015,06,15,04,16,11.90
2015,06,15,04,17,11.90
2015,06,15,04,18,11.90
2015,06,15,04,19,11.90
2015,06,15,04,20,11.90
2015,06,15,04,21,11.90
2015,06,15,04,22,11.90
2015,06,15,04,23,11.90
2015,06,15,04,24,11.90
2015,06,15,04,25,12.00
2015,06,15,04,26,12.00
2015,06,15,04,27,12.00
2015,06,15,04,28,12.00
2015,06,15,04,29,12.10
2015,06,15,04,30,12.10
2015,06,15,04,31,12.10
2015,06,15,04,32,12.10
2015,06,15,04,33,12.10
2015,06,15,04,34,12.10
2015,06,15,04,35,12.10
2015,06,15,04,36,12.10
2015,06,15,04,37,12.10
2015,06,15,04,38,12.10
2015,06,15,04,39,12.10
2015,06,15,04,40,12.10
2015,06,15,04,41,12.10
2015,06,15,04,42,12.10
2015,06,15,04,43,12.10
2015,06,15,04,44,12.10
2015,06,15,04,45,12.10
2015,06,15,04,46,12.10
2015,06,15,04,47,12.10
2015,06,15,04,48,12.10
2015,06,15,04,49,12.00
2015,06,15,04,50,12.00
2015,06,15,04,51,12.00
2015,06,15,04,52,12.00
2015,06,15,04,53,12.00
2015,06,15,04,54,11.90
2015,06,15,04,55,11.90
2015,06,15,04,56,11.90
2015,06,15,04,57,11.80
2015,06,15,04,58,11.80
2015,06,15,04,59,11.80
2015,06,15,05,00,11.80
2015,06,15,05,01,11.80
2015,06,15,05,02,11.80
2015,06,15,05,03,11.80
2015,06,15,05,04,11.70
2015,06,15,05,05,11.70
2015,06,15,05,06,11.70
2015,06,15,05,07,11.70
2015,06,15,05,08,11.70
2015,06,15,05,09,11.70
2015,06,15,05,10,11.70
2015,06,15,05,11,11.60
2015,06,15,05,12,11.60
2015,06,15,05,13,11.60
2015,06,15,05,14,11.60
2015,06,15,05,15,11.60
2015,06,15,05,16,11.70
2015,06,15,05,17,11.70
2015,06,15,05,18,11.70
2015,06,15,05,19,11.70
2015,06,15,05,20,11.70
2015,06,15,05,21,11.70
2015,06,15,05,22,11.70
2015,06,15,05,23,11.70
2015,06,15,05,24,11.70
2015,06,15,05,25,11.70
2015,06,15,05,26,11.70
2015,06,15,05,27,11.70
2015,06,15,05,28,11.70
2015,06,15,05,29,11.70
2015,06,15,05,30,11.80
2015,06,15,05,31,11.80
2015,06,15,05,32,11.80
2015,06,15,05,33,11.80
2015,06,15,05,34,11.80
2015,06,15,05,35,11.80
2015,06,15,05,36,11.80
2015,06,15,05,37,11.90
2015,06,15,05,38,11.90
2015,06,15,05,39,11.90
2015,06,15,05,40,11.90
2015,06,15,05,41,11.90
2015,06,15,05,42,11.90
2015,06,15,05,43,11.90
2015,06,15,05,44,11.90
2015,06,15,05,45,11.90
2015,06,15,05,46,12.00
2015,06,15,05,47,12.00
2015,06,15,05,48,12.10
2015,06,15,05,49,12.10
2015,06,15,05,50,12.10
2015,06,15,05,51,12.10
2015,06,15,05,52,12.10
2015,06,15,05,53,12.20
2015,06,15,05,54,12.20
2015,06,15,05,55,12.30
2015,06,15,05,56,12.30
2015,06,15,05,57,12.40
2015,06,15,05,58,12.40
2015,06,15,05,59,12.40
2015,06,15,06,00,12.40
2015,06,15,06,01,12.50
2015,06,15,06,02,12.50
2015,06,15,06,03,12.40
2015,06,15,06,04,12.40
2015,06,15,06,05,12.40
2015,06,15,06,06,12.40
2015,06,15,06,07,12.50
2015,06,15,06,08,12.50
2015,06,15,06,09,12.60
2015,06,15,06,10,12.60
2015,06,15,06,11,12.60
2015,06,15,06,12,12.70
2015,06,15,06,13,12.70
2015,06,15,06,14,12.70
2015,06,15,06,15,12.70
2015,06,15,06,16,12.70
2015,06,15,06,17,12.70
2015,06,15,06,18,12.70
2015,06,15,06,19,12.70
2015,06,15,06,20,12.70
2015,06,15,06,21,12.80
2015,06,15,06,22,12.80
2015,06,15,06,23,12.80
2015,06,15,06,24,12.80
2015,06,15,06,25,12.80
2015,06,15,06,26,12.80
2015,06,15,06,27,12.80
2015,06,15,06,28,12.80
2015,06,15,06,29,12.80
2015,06,15,06,30,12.80
2015,06,15,06,31,12.80
2015,06,15,06,32,12.80
2015,06,15,06,33,12.80
2015,06,15,06,34,12.80
2015,06,15,06,35,12.80
2015,06,15,06,36,12.90
2015,06,15,06,37,12.90
2015,06,15,06,38,13.00
2015,06,15,06,39,13.00
2015,06,15,06,40,13.10
2015,06,15,06,41,13.10
2015,06,15,06,42,13.10
2015,06,15,06,43,13.10
2015,06,15,06,44,13.20
2015,06,15,06,45,13.20
2015,06,15,06,46,13.20
2015,06,15,06,47,13.20
2015,06,15,06,48,13.20
2015,06,15,06,49,13.20
2015,06,15,06,50,13.20
2015,06,15,06,51,13.20
2015,06,15,06,52,13.20
2015,06,15,06,53,13.20
2015,06,15,06,54,13.30
2015,06,15,06,55,13.30
2015,06,15,06,56,13.30
2015,06,15,06,57,13.30
2015,06,15,06,58,13.30
2015,06,15,06,59,13.40
2015,06,15,07,00,13.50
2015,06,15,07,01,13.60
2015,06,15,07,02,13.70
2015,06,15,07,03,13.90
2015,06,15,07,04,14.00
2015,06,15,07,05,14.10
2015,06,15,07,06,14.30
2015,06,15,07,07,14.40
2015,06,15,07,08,14.50
2015,06,15,07,09,14.60
2015,06,15,07,10,14.70
2015,06,15,07,11,14.80
2015,06,15,07,12,14.90
2015,06,15,07,13,14.90
2015,06,15,07,14,15.00
2015,06,15,07,15,15.10
2015,06,15,07,16,15.20
2015,06,15,07,17,15.20
2015,06,15,07,18,15.30
2015,06,15,07,19,15.40
2015,06,15,07,20,15.50
2015,06,15,07,21,15.60
2015,06,15,07,22,15.60
2015,06,15,07,23,15.70
2015,06,15,07,24,15.80
2015,06,15,07,25,15.90
2015,06,15,07,26,16.00
2015,06,15,07,27,16.10
2015,06,15,07,28,16.20
2015,06,15,07,29,16.30
2015,06,15,07,30,16.40
2015,06,15,07,31,16.50
2015,06,15,07,32,16.60
2015,06,15,07,33,16.70
2015,06,15,07,34,16.80
2015,06,15,07,35,16.90
2015,06,15,07,36,17.00
2015,06,15,07,37,17.10
2015,06,15,07,38,17.10
2015,06,15,07,39,17.20
2015,06,15,07,40,17.30
2015,06,15,07,41,17.30
2015,06,15,07,42,17.30
2015,06,15,07,43,17.30
2015,06,15,07,44,17.40
2015,06,15,07,45,17.40
2015,06,15,07,46,17.30
2015,06,15,07,47,17.00
2015,06,15,07,48,16.80
2015,06,15,07,49,16.60
2015,06,15,07,50,16.30
2015,06,15,07,51,16.10
2015,06,15,07,52,15.90
2015,06,15,07,53,15.70
2015,06,15,07,54,15.70
2015,06,15,07,55,15.60
2015,06,15,07,56,15.60
2015,06,15,07,57,15.60
2015,06,15,07,58,15.50
2015,06,15,07,59,15.40
2015,06,15,08,00,15.40
2015,06,15,08,01,15.40
2015,06,15,08,02,15.40
2015,06,15,08,03,15.40
2015,06,15,08,04,15.40
2015,06,15,08,05,15.50
2015,06,15,08,06,15.50
2015,06,15,08,07,15.60
2015,06,15,08,08,15.80
2015,06,15,08,09,15.90
2015,06,15,08,10,16.00
2015,06,15,08,11,16.10
2015,06,15,08,12,16.20
2015,06,15,08,13,16.20
2015,06,15,08,14,16.20
2015,06,15,08,15,16.30
2015,06,15,08,16,16.30
2015,06,15,08,17,16.30
2015,06,15,08,18,16.30
2015,06,15,08,19,16.30
2015,06,15,08,20,16.40
2015,06,15,08,21,16.40
2015,06,15,08,22,16.50
2015,06,15,08,23,16.60
2015,06,15,08,24,16.70
2015,06,15,08,25,16.80
2015,06,15,08,26,16.90
2015,06,15,08,27,17.10
2015,06,15,08,28,17.20
2015,06,15,08,29,17.30
2015,06,15,08,30,17.50
2015,06,15,08,31,17.60
2015,06,15,08,32,17.80
2015,06,15,08,33,17.90
2015,06,15,08,34,18.10
2015,06,15,08,35,18.20
2015,06,15,08,36,18.40
2015,06,15,08,37,18.60
2015,06,15,08,38,18.80
2015,06,15,08,39,18.80
2015,06,15,08,40,18.90
2015,06,15,08,41,18.90
2015,06,15,08,42,18.90
2015,06,15,08,43,19.00
2015,06,15,08,44,19.00
2015,06,15,08,45,18.90
2015,06,15,08,46,18.70
2015,06,15,08,47,18.50
2015,06,15,08,48,18.30
2015,06,15,08,49,18.20
2015,06,15,08,50,18.00
2015,06,15,08,51,17.70
2015,06,15,08,52,17.30
2015,06,15,08,53,16.70
2015,06,15,08,54,16.30
2015,06,15,08,55,15.90
2015,06,15,08,56,15.70
2015,06,15,08,57,15.50
2015,06,15,08,58,15.30
2015,06,15,08,59,15.20
2015,06,15,09,00,15.10
2015,06,15,09,01,15.00
2015,06,15,09,02,14.90
2015,06,15,09,03,14.70
2015,06,15,09,04,14.50
2015,06,15,09,05,14.40
2015,06,15,09,06,14.30
2015,06,15,09,07,14.30
2015,06,15,09,08,14.20
2015,06,15,09,09,14.20
2015,06,15,09,10,14.10
2015,06,15,09,11,14.00
2015,06,15,09,12,13.90
2015,06,15,09,13,13.90
2015,06,15,09,14,13.80
2015,06,15,09,15,13.80
2015,06,15,09,16,13.80
2015,06,15,09,17,13.90
2015,06,15,09,18,13.90
2015,06,15,09,19,14.10
2015,06,15,09,20,14.20
2015,06,15,09,21,14.30
2015,06,15,09,22,14.50
2015,06,15,09,23,14.60
2015,06,15,09,24,14.60
2015,06,15,09,25,14.70
2015,06,15,09,26,14.70
2015,06,15,09,27,14.70
2015,06,15,09,28,14.90
2015,06,15,09,29,15.10
2015,06,15,09,30,15.20
2015,06,15,09,31,15.40
2015,06,15,09,32,15.50
2015,06,15,09,33,15.50
2015,06,15,09,34,15.60
2015,06,15,09,35,15.60
2015,06,15,09,36,15.50
2015,06,15,09,37,15.50
2015,06,15,09,38,15.30
2015,06,15,09,39,15.30
2015,06,15,09,40,15.40
2015,06,15,09,41,15.50
2015,06,15,09,42,15.60
2015,06,15,09,43,15.60
2015,06,15,09,44,15.60
2015,06,15,09,45,15.70
2015,06,15,09,46,15.70
2015,06,15,09,47,15.60
2015,06,15,09,48,15.60
2015,06,15,09,49,15.60
2015,06,15,09,50,15.60
2015,06,15,09,51,15.60
2015,06,15,09,52,15.50
2015,06,15,09,53,15.30
2015,06,15,09,54,15.30
2015,06,15,09,55,15.20
2015,06,15,09,56,15.20
2015,06,15,09,57,15.20
2015,06,15,09,58,15.10
2015,06,15,09,59,14.90
2015,06,15,10,00,14.80
2015,06,15,10,01,14.80
2015,06,15,10,02,14.90
2015,06,15,10,03,14.90
2015,06,15,10,04,15.00
2015,06,15,10,05,15.10
2015,06,15,10,06,15.20
2015,06,15,10,07,15.30
2015,06,15,10,08,15.30
2015,06,15,10,09,15.30
2015,06,15,10,10,15.30
2015,06,15,10,11,15.30
2015,06,15,10,12,15.30
2015,06,15,10,13,15.30
2015,06,15,10,14,15.40
2015,06,15,10,15,15.50
2015,06,15,10,16,15.60
2015,06,15,10,17,15.60
2015,06,15,10,18,15.60
2015,06,15,10,19,15.60
2015,06,15,10,20,15.50
2015,06,15,10,21,15.50
2015,06,15,10,22,15.40
2015,06,15,10,23,15.40
2015,06,15,10,24,15.40
2015,06,15,10,25,15.40
2015,06,15,10,26,15.50
2015,06,15,10,27,15.50
2015,06,15,10,28,15.50
2015,06,15,10,29,15.60
2015,06,15,10,30,15.60
2015,06,15,10,31,15.60
2015,06,15,10,32,15.60
2015,06,15,10,33,15.70
2015,06,15,10,34,15.80
2015,06,15,10,35,15.80
2015,06,15,10,36,15.80
2015,06,15,10,37,15.90
2015,06,15,10,38,16.00
2015,06,15,10,39,16.00
2015,06,15,10,40,16.00
2015,06,15,10,41,15.90
2015,06,15,10,42,15.80
2015,06,15,10,43,15.90
2015,06,15,10,44,15.80
2015,06,15,10,45,15.70
2015,06,15,10,46,15.50
2015,06,15,10,47,15.50
2015,06,15,10,48,15.40
2015,06,15,10,49,15.40
2015,06,15,10,50,15.40
2015,06,15,10,51,15.40
2015,06,15,10,52,15.30
2015,06,15,10,53,15.30
2015,06,15,10,54,15.30
2015,06,15,10,55,15.40
2015,06,15,10,56,15.40
2015,06,15,10,57,15.40
2015,06,15,10,58,15.40
2015,06,15,10,59,15.50
2015,06,15,11,00,15.50
2015,06,15,11,01,15.70
2015,06,15,11,02,15.80
2015,06,15,11,03,15.80
2015,06,15,11,04,15.80
2015,06,15,11,05,15.80
2015,06,15,11,06,15.80
2015,06,15,11,07,15.70
2015,06,15,11,08,15.70
2015,06,15,11,09,15.70
2015,06,15,11,10,15.70
2015,06,15,11,11,15.80
2015,06,15,11,12,15.90
2015,06,15,11,13,16.20
2015,06,15,11,14,16.40
2015,06,15,11,15,16.60
2015,06,15,11,16,16.80
2015,06,15,11,17,16.90
2015,06,15,11,18,17.10
2015,06,15,11,19,17.20
2015,06,15,11,20,17.30
2015,06,15,11,21,17.50
2015,06,15,11,22,17.50
2015,06,15,11,23,17.50
2015,06,15,11,24,17.50
2015,06,15,11,25,17.40
2015,06,15,11,26,17.30
2015,06,15,11,27,17.20
2015,06,15,11,28,17.10
2015,06,15,11,29,17.10
2015,06,15,11,30,17.10
2015,06,15,11,31,17.10
2015,06,15,11,32,16.90
2015,06,15,11,33,16.80
2015,06,15,11,34,16.50
2015,06,15,11,35,16.30
2015,06,15,11,36,16.20
2015,06,15,11,37,16.10
2015,06,15,11,38,16.10
2015,06,15,11,39,16.20
2015,06,15,11,40,16.30
2015,06,15,11,41,16.30
2015,06,15,11,42,16.40
2015,06,15,11,43,16.60
2015,06,15,11,44,16.70
2015,06,15,11,45,16.90
2015,06,15,11,46,17.10
2015,06,15,11,47,17.20
2015,06,15,11,48,17.30
2015,06,15,11,49,17.50
2015,06,15,11,50,17.70
2015,06,15,11,51,17.80
2015,06,15,11,52,17.90
2015,06,15,11,53,18.00
2015,06,15,11,54,18.00
2015,06,15,11,55,18.10
2015,06,15,11,56,18.20
2015,06,15,11,57,18.20
2015,06,15,11,58,18.30
2015,06,15,11,59,18.40
2015,06,15,12,00,18.40
2015,06,15,12,01,18.40
2015,06,15,12,02,18.40
2015,06,15,12,03,18.30
2015,06,15,12,04,18.30
2015,06,15,12,05,18.40
2015,06,15,12,06,18.40
2015,06,15,12,07,18.30
2015,06,15,12,08,18.20
2015,06,15,12,09,18.20
2015,06,15,12,10,18.30
2015,06,15,12,11,18.30
2015,06,15,12,12,18.30
2015,06,15,12,13,18.40
2015,06,15,12,14,18.50
2015,06,15,12,15,18.60
2015,06,15,12,16,18.70
2015,06,15,12,17,18.80
2015,06,15,12,18,18.90
2015,06,15,12,19,19.00
2015,06,15,12,20,19.20
2015,06,15,12,21,19.20
2015,06,15,12,22,19.10
2015,06,15,12,23,19.20
2015,06,15,12,24,19.20
2015,06,15,12,25,19.20
2015,06,15,12,26,19.10
2015,06,15,12,27,18.90
2015,06,15,12,28,18.70
2015,06,15,12,29,18.50
2015,06,15,12,30,18.40
2015,06,15,12,31,18.30
2015,06,15,12,32,18.40
2015,06,15,12,33,18.50
2015,06,15,12,34,18.50
2015,06,15,12,35,18.60
2015,06,15,12,36,18.70
2015,06,15,12,37,18.80
2015,06,15,12,38,18.70
2015,06,15,12,39,18.60
2015,06,15,12,40,18.60
2015,06,15,12,41,18.50
2015,06,15,12,42,18.50
2015,06,15,12,43,18.60
2015,06,15,12,44,18.70
2015,06,15,12,45,18.70
2015,06,15,12,46,18.80
2015,06,15,12,47,18.70
2015,06,15,12,48,18.60
2015,06,15,12,49,18.50
2015,06,15,12,50,18.50
2015,06,15,12,51,18.40
2015,06,15,12,52,18.30
2015,06,15,12,53,18.30
2015,06,15,12,54,18.40
2015,06,15,12,55,18.50
2015,06,15,12,56,18.50
2015,06,15,12,57,18.60
2015,06,15,12,58,18.70
2015,06,15,12,59,18.60
2015,06,15,13,00,18.50
2015,06,15,13,01,18.30
2015,06,15,13,02,18.20
2015,06,15,13,03,18.30
2015,06,15,13,04,18.40
2015,06,15,13,05,18.60
2015,06,15,13,06,18.80
2015,06,15,13,07,18.70
2015,06,15,13,08,18.50
2015,06,15,13,09,18.20
2015,06,15,13,10,18.10
2015,06,15,13,11,18.20
2015,06,15,13,12,18.30
2015,06,15,13,13,18.30
2015,06,15,13,14,18.40
2015,06,15,13,15,18.50
2015,06,15,13,16,18.50
2015,06,15,13,17,18.40
2015,06,15,13,18,18.30
2015,06,15,13,19,18.30
2015,06,15,13,20,18.30
2015,06,15,13,21,18.40
2015,06,15,13,22,18.40
2015,06,15,13,23,18.40
2015,06,15,13,24,18.40
2015,06,15,13,25,18.40
2015,06,15,13,26,18.50
2015,06,15,13,27,18.50
2015,06,15,13,28,18.60
2015,06,15,13,29,18.60
2015,06,15,13,30,18.80
2015,06,15,13,31,18.80
2015,06,15,13,32,18.70
2015,06,15,13,33,18.50
2015,06,15,13,34,18.40
2015,06,15,13,35,18.30
2015,06,15,13,36,18.10
2015,06,15,13,37,18.10
2015,06,15,13,38,18.10
2015,06,15,13,39,18.10
2015,06,15,13,40,18.20
2015,06,15,13,41,18.30
2015,06,15,13,42,18.40
2015,06,15,13,43,18.50
2015,06,15,13,44,18.60
2015,06,15,13,45,18.60
2015,06,15,13,46,18.70
2015,06,15,13,47,18.80
2015,06,15,13,48,18.80
2015,06,15,13,49,18.70
2015,06,15,13,50,18.70
2015,06,15,13,51,18.70
2015,06,15,13,52,18.60
2015,06,15,13,53,18.60
2015,06,15,13,54,18.60
2015,06,15,13,55,18.60
2015,06,15,13,56,18.60
2015,06,15,13,57,18.50
2015,06,15,13,58,18.50
2015,06,15,13,59,18.40
2015,06,15,14,00,18.20
2015,06,15,14,01,17.80
2015,06,15,14,02,17.60
2015,06,15,14,03,17.40
2015,06,15,14,04,17.50
2015,06,15,14,05,17.60
2015,06,15,14,06,17.80
2015,06,15,14,07,17.90
2015,06,15,14,08,18.00
2015,06,15,14,09,18.10
2015,06,15,14,10,18.10
2015,06,15,14,11,18.10
2015,06,15,14,12,18.20
2015,06,15,14,13,18.30
2015,06,15,14,14,18.50
2015,06,15,14,15,18.70
2015,06,15,14,16,19.00
2015,06,15,14,17,19.10
2015,06,15,14,18,19.20
2015,06,15,14,19,19.10
2015,06,15,14,20,19.10
2015,06,15,14,21,19.20
2015,06,15,14,22,19.10
2015,06,15,14,23,19.00
2015,06,15,14,24,18.90
2015,06,15,14,25,18.80
2015,06,15,14,26,18.60
2015,06,15,14,27,18.30
2015,06,15,14,28,18.00
2015,06,15,14,29,17.80
2015,06,15,14,30,17.70
2015,06,15,14,31,17.60
2015,06,15,14,32,17.70
2015,06,15,14,33,17.80
2015,06,15,14,34,18.10
2015,06,15,14,35,18.20
2015,06,15,14,36,18.30
2015,06,15,14,37,18.30
2015,06,15,14,38,18.30
2015,06,15,14,39,18.50
2015,06,15,14,40,18.60
2015,06,15,14,41,18.50
2015,06,15,14,42,18.40
2015,06,15,14,43,18.30
2015,06,15,14,44,18.30
2015,06,15,14,45,18.30
2015,06,15,14,46,18.30
2015,06,15,14,47,18.30
2015,06,15,14,48,18.30
2015,06,15,14,49,18.20
2015,06,15,14,50,17.90
2015,06,15,14,51,17.50
2015,06,15,14,52,17.10
2015,06,15,14,53,16.70
2015,06,15,14,54,16.60
2015,06,15,14,55,16.60
2015,06,15,14,56,16.50
2015,06,15,14,57,16.40
2015,06,15,14,58,16.30
2015,06,15,14,59,16.30
2015,06,15,15,00,16.50
2015,06,15,15,01,16.70
2015,06,15,15,02,16.80
2015,06,15,15,03,17.00
2015,06,15,15,04,17.00
2015,06,15,15,05,16.90
2015,06,15,15,06,16.80
2015,06,15,15,07,16.70
2015,06,15,15,08,16.70
2015,06,15,15,09,16.70
2015,06,15,15,10,16.60
2015,06,15,15,11,16.60
2015,06,15,15,12,16.70
2015,06,15,15,13,16.90
2015,06,15,15,14,16.90
2015,06,15,15,15,16.80
2015,06,15,15,16,16.80
2015,06,15,15,17,16.90
2015,06,15,15,18,16.90
2015,06,15,15,19,16.90
2015,06,15,15,20,16.70
2015,06,15,15,21,16.60
2015,06,15,15,22,16.60
2015,06,15,15,23,16.60
2015,06,15,15,24,16.80
2015,06,15,15,25,16.90
2015,06,15,15,26,17.00
2015,06,15,15,27,16.90
2015,06,15,15,28,16.90
2015,06,15,15,29,17.00
2015,06,15,15,30,17.00
2015,06,15,15,31,17.20
2015,06,15,15,32,17.40
2015,06,15,15,33,17.60
2015,06,15,15,34,17.80
2015,06,15,15,35,18.00
2015,06,15,15,36,18.10
2015,06,15,15,37,18.10
2015,06,15,15,38,18.00
2015,06,15,15,39,17.90
2015,06,15,15,40,17.80
2015,06,15,15,41,17.80
2015,06,15,15,42,17.80
2015,06,15,15,43,17.80
2015,06,15,15,44,17.50
2015,06,15,15,45,17.20
2015,06,15,15,46,17.00
2015,06,15,15,47,16.90
2015,06,15,15,48,16.80
2015,06,15,15,49,16.80
2015,06,15,15,50,16.80
2015,06,15,15,51,16.80
2015,06,15,15,52,16.90
2015,06,15,15,53,16.80
2015,06,15,15,54,16.80
2015,06,15,15,55,16.70
2015,06,15,15,56,16.70
2015,06,15,15,57,16.70
2015,06,15,15,58,16.90
2015,06,15,15,59,17.00
2015,06,15,16,00,17.20
2015,06,15,16,01,17.40
2015,06,15,16,02,17.60
2015,06,15,16,03,17.70
2015,06,15,16,04,17.90
2015,06,15,16,05,18.10
2015,06,15,16,06,18.10
2015,06,15,16,07,18.20
2015,06,15,16,08,18.10
2015,06,15,16,09,18.00
2015,06,15,16,10,17.90
2015,06,15,16,11,17.90
2015,06,15,16,12,17.80
2015,06,15,16,13,17.70
2015,06,15,16,14,17.70
2015,06,15,16,15,17.70
2015,06,15,16,16,17.60
2015,06,15,16,17,17.50
2015,06,15,16,18,17.50
2015,06,15,16,19,17.50
2015,06,15,16,20,17.50
2015,06,15,16,21,17.50
2015,06,15,16,22,17.50
2015,06,15,16,23,17.60
2015,06,15,16,24,17.70
2015,06,15,16,25,17.70
2015,06,15,16,26,17.70
2015,06,15,16,27,17.70
2015,06,15,16,28,17.80
2015,06,15,16,29,17.90
2015,06,15,16,30,18.00
2015,06,15,16,31,18.20
2015,06,15,16,32,18.10
2015,06,15,16,33,18.00
2015,06,15,16,34,17.80
2015,06,15,16,35,17.50
2015,06,15,16,36,17.30
2015,06,15,16,37,17.10
2015,06,15,16,38,16.90
2015,06,15,16,39,16.90
2015,06,15,16,40,16.90
2015,06,15,16,41,16.90
2015,06,15,16,42,17.00
2015,06,15,16,43,17.10
2015,06,15,16,44,17.20
2015,06,15,16,45,17.40
2015,06,15,16,46,17.50
2015,06,15,16,47,17.60
2015,06,15,16,48,17.70
2015,06,15,16,49,17.70
2015,06,15,16,50,17.80
2015,06,15,16,51,17.70
2015,06,15,16,52,17.70
2015,06,15,16,53,17.70
2015,06,15,16,54,17.60
2015,06,15,16,55,17.50
2015,06,15,16,56,17.50
2015,06,15,16,57,17.50
2015,06,15,16,58,17.60
2015,06,15,16,59,17.70
2015,06,15,17,00,17.70
2015,06,15,17,01,17.80
2015,06,15,17,02,17.70
2015,06,15,17,03,17.70
2015,06,15,17,04,17.80
2015,06,15,17,05,17.80
2015,06,15,17,06,17.80
2015,06,15,17,07,17.80
2015,06,15,17,08,17.90
2015,06,15,17,09,17.80
2015,06,15,17,10,17.80
2015,06,15,17,11,17.80
2015,06,15,17,12,17.80
2015,06,15,17,13,17.90
2015,06,15,17,14,17.90
2015,06,15,17,15,17.90
2015,06,15,17,16,17.90
2015,06,15,17,17,17.90
2015,06,15,17,18,17.80
2015,06,15,17,19,17.60